RH
43 47 56 65 67 65 68 67 61 64 66 71 76 75 70 56 36 23 16 16 15 14 14 13 14 15 15 15 13 12 11 10 10 10 9 9 8 9 9 9 9 9 9 10 9 9 9 9 8 9 9 10 10 10 11 10 10 11 11 12 13 15 19 25 33 39 44 43 39 40 44 45 51 60 64 71 82 89 90 84 75 68 63 59 61
44 55 59 54 56 60 61 62 63 64 65 70 76 76 70 50 29 19 16 17 16 15 15 14 15 18 20 18 16 15 14 13 13 12 11 10 9 9 10 10 10 11 11 11 10 10 10 11 10 10 9 9 10 10 11 10 10 10 10 9 9 10 12 16 23 28 31 31 28 29 31 30 39 53 61 68 73 76 84 90 91 89 85 76 69
43 55 62 56 57 64 69 68 62 59 59 63 71 76 67 44 26 19 18 17 16 15 16 17 17 20 22 22 21 20 17 17 16 15 15 14 12 11 11 12 12 13 13 12 12 12 12 13 12 11 11 11 11 10 10 10 10 10 10 9 9 9 10 9 11 13 14 19 24 24 21 21 34 51 58 64 71 72 71 74 83 91 96 94 81
37 43 48 47 51 62 70 66 56 55 57 57 63 71 61 41 27 22 21 19 16 14 15 17 18 21 23 23 23 22 20 19 18 17 18 17 17 15 14 15 15 15 14 14 14 13 13 13 13 13 12 12 12 11 11 11 11 10 10 9 9 8 8 6 7 7 7 17 24 20 22 31 43 52 52 54 63 69 69 70 80 89 92 97 95
28 36 43 47 54 66 70 64 60 60 58 53 58 68 60 41 29 23 23 21 16 14 16 18 20 23 25 24 23 22 21 21 20 18 18 18 19 18 17 17 16 16 16 15 15 14 14 13 13 13 13 13 13 12 12 11 10 10 9 9 8 7 6 5 5 4 6 13 15 17 31 42 42 41 38 40 50 59 64 68 81 96 96 96 99
25 40 51 54 53 58 63 66 69 66 56 47 52 67 63 47 34 23 20 20 17 16 18 20 23 26 28 28 26 25 23 21 20 18 18 18 18 18 18 18 17 17 16 16 15 14 13 12 12 12 12 12 12 11 11 10 10 9 8 8 7 6 5 5 4 3 4 6 8 16 31 32 26 26 29 33 39 50 62 68 78 91 96 99 100
27 37 47 52 50 43 45 54 61 63 55 42 44 59 65 62 53 31 18 18 17 18 21 21 26 30 31 31 29 28 26 23 20 18 17 17 18 19 18 18 18 17 16 15 14 12 11 10 10 10 10 10 10 10 9 8 8 7 7 6 6 5 4 4 4 3 3 3 4 9 13 11 12 19 27 33 34 44 62 74 81 86 86 93 101
37 39 42 46 48 40 38 45 50 49 45 41 49 62 67 71 65 39 20 19 17 17 21 23 28 32 33 34 33 30 28 24 20 18 17 17 18 19 18 18 17 16 15 13 11 10 9 8 7 7 7 7 6 7 6 6 6 5 5 5 4 4 4 3 4 3 3 3 3 4 4 4 7 13 18 21 23 35 53 63 76 92 91 88 97
43 52 54 50 48 43 41 46 45 40 37 39 53 69 72 68 59 42 28 23 18 18 21 25 30 32 35 38 36 34 30 26 22 18 17 17 18 18 18 17 16 15 14 12 10 9 7 7 6 5 5 5 5 5 5 4 4 4 3 3 3 3 3 3 3 3 3 3 3 3 3 3 4 6 7 7 8 18 32 37 48 73 80 69 70
48 57 61 55 52 48 42 41 40 36 35 37 47 66 75 66 55 46 37 28 20 20 23 28 33 34 37 41 41 39 33 27 22 19 18 18 17 18 17 16 15 13 12 11 10 8 7 6 5 5 4 4 4 4 4 4 4 4 3 3 3 3 3 3 3 3 3 3 4 3 3 3 3 3 3 3 4 6 11 14 18 33 43 38 36
50 53 54 51 51 49 41 36 37 35 33 40 56 76 83 74 61 48 38 33 28 26 28 32 38 39 39 43 45 43 36 28 23 20 19 18 17 17 16 15 13 12 11 9 9 8 7 6 5 5 5 4 4 4 4 4 4 4 4 3 4 3 3 3 3 3 3 3 3 3 3 3 3 3 3 3 3 3 4 5 7 11 15 16 21
48 49 47 47 50 53 50 44 42 39 35 41 57 74 75 68 65 56 39 31 31 34 40 44 47 46 43 45 48 47 39 28 23 21 19 19 18 16 15 14 13 11 10 8 9 8 6 6 6 5 5 4 4 4 4 4 4 4 4 4 4 4 4 4 4 3 4 4 3 3 3 3 3 3 3 3 3 3 3 3 4 6 7 9 14
58 52 43 40 43 47 50 47 44 44 43 43 44 46 40 39 59 63 41 29 33 42 55 63 62 56 48 47 51 51 41 29 25 23 22 20 19 18 16 15 14 12 11 10 9 9 8 7 7 6 6 6 5 5 5 5 5 5 5 5 4 5 4 4 4 4 4 4 4 4 3 3 4 3 3 3 3 3 3 3 3 4 6 7 8
63 49 38 34 36 41 44 45 43 42 43 42 35 30 25 37 70 75 49 43 53 59 71 81 75 62 50 46 52 52 41 32 29 26 26 26 23 22 19 18 18 15 13 12 11 11 11 10 10 9 8 8 7 7 7 6 6 6 6 6 6 5 5 5 5 5 5 4 4 4 4 3 3 3 3 3 3 3 2 3 3 4 5 5 6
57 46 40 33 32 34 34 33 33 31 30 28 28 30 29 43 79 92 74 70 77 76 77 79 68 52 40 37 46 50 38 31 34 32 32 34 32 29 25 21 21 21 19 18 17 17 16 16 16 15 13 12 10 9 9 8 8 7 7 6 6 6 6 6 6 5 5 5 5 5 4 4 4 3 4 3 3 4 3 3 3 4 4 4 4
53 48 44 39 37 36 34 33 31 29 27 25 26 29 24 25 56 90 92 86 90 89 80 73 67 59 47 40 45 48 37 29 34 36 37 43 43 40 36 30 25 24 24 24 24 25 25 23 22 22 20 18 16 14 13 11 10 9 8 8 8 7 7 6 7 7 6 6 6 6 5 5 5 4 4 4 4 4 4 4 4 4 4 5 4
49 45 39 36 33 33 37 38 35 31 30 27 24 25 24 23 43 76 90 87 86 84 76 71 76 77 67 63 61 49 33 29 35 38 43 51 55 52 50 46 39 31 27 27 29 31 33 32 30 28 27 25 23 21 19 17 15 13 11 10 9 9 8 8 7 7 7 7 7 7 7 6 6 5 5 5 5 5 5 4 4 5 5 5 5
47 42 38 33 29 30 33 32 30 27 26 27 26 24 24 26 35 51 67 78 74 65 60 56 62 65 57 68 78 55 30 28 35 40 44 54 65 64 58 56 54 48 38 32 33 37 40 39 36 34 32 30 29 28 26 24 21 19 16 14 13 11 10 10 9 8 8 8 8 8 8 7 7 7 7 7 6 6 7 7 7 7 7 8 8
52 46 40 33 29 30 30 27 26 24 22 23 24 24 22 24 29 29 36 49 46 41 44 43 50 56 53 71 86 59 33 30 33 41 45 50 64 71 65 59 59 58 53 46 43 44 46 44 40 39 38 36 34 32 31 29 27 25 22 20 18 15 13 12 11 11 10 9 9 9 9 9 9 8 8 9 9 9 10 10 11 10 10 11 11
55 49 41 35 32 31 32 31 30 27 26 24 21 21 21 23 29 29 28 33 27 27 39 41 47 59 67 84 86 60 45 40 32 36 44 50 64 73 72 69 63 62 62 61 59 53 50 47 44 44 43 41 40 37 36 34 32 31 29 27 25 22 20 17 14 13 12 11 11 10 11 11 10 11 10 10 11 11 11 12 13 13 13 13 13
58 52 43 39 36 34 35 34 33 30 28 27 24 20 19 19 24 28 29 32 29 27 32 31 37 56 74 88 85 71 69 63 47 41 42 52 69 75 78 79 73 68 67 69 70 65 58 52 48 49 49 46 44 41 39 38 36 35 34 33 32 30 27 24 21 19 16 15 14 13 13 13 12 12 12 12 13 13 13 14 14 15 15 15 15
59 53 47 43 39 39 39 37 36 35 31 31 28 21 17 15 19 24 28 33 33 31 30 25 30 45 53 64 72 72 73 71 66 61 49 52 74 83 85 87 84 80 76 72 71 68 64 60 55 53 53 51 49 47 45 43 42 41 40 39 38 37 35 32 28 26 23 20 18 17 16 15 15 15 14 14 14 14 14 14 14 15 16 16 16
63 58 51 45 40 41 43 42 40 39 37 35 31 25 20 15 15 20 28 37 38 36 34 30 36 45 43 53 74 82 78 71 68 73 67 62 76 89 91 93 94 93 91 87 82 73 66 63 60 57 56 55 54 52 50 50 49 47 46 44 42 41 40 38 35 31 28 25 24 23 21 20 19 18 17 17 17 16 16 16 16 16 16 16 17
72 64 58 54 48 43 42 41 41 41 41 40 36 31 25 20 18 17 21 32 37 39 38 34 44 59 57 63 82 93 95 86 74 82 90 86 86 89 88 91 93 90 92 97 96 90 79 66 62 63 63 61 60 57 55 56 56 54 53 51 48 45 43 42 41 38 34 31 28 26 26 25 24 24 23 22 21 20 20 20 21 21 21 21 21
73 64 62 62 60 57 51 45 42 40 40 41 41 38 33 27 24 21 19 23 28 34 39 38 46 58 58 61 74 82 91 95 88 89 97 98 94 89 85 88 91 91 94 96 96 98 94 84 78 77 74 69 66 61 60 65 69 69 67 65 61 56 50 45 42 40 39 39 38 35 34 33 32 31 31 29 28 27 25 24 24 24 24 25 24
68 64 63 61 61 64 63 58 54 49 45 43 41 40 39 35 32 28 24 21 22 26 33 38 42 47 49 54 61 63 68 79 89 95 99 98 91 84 84 90 93 95 95 90 88 92 95 95 97 95 90 87 83 74 71 77 84 84 79 76 75 72 65 58 51 46 42 41 42 42 41 40 40 39 37 36 34 32 29 28 27 25 24 24 24
64 65 62 57 55 55 55 54 53 52 52 51 47 43 42 40 38 35 31 28 26 25 29 36 39 40 43 46 47 49 50 54 66 81 93 92 80 73 78 82 85 88 82 73 79 93 98 100 103 102 98 98 97 92 90 94 96 93 89 87 87 84 78 72 65 59 54 50 47 46 45 46 48 50 51 50 48 43 38 32 29 27 26 26 26
75 74 68 63 58 53 49 45 42 41 43 48 50 48 47 48 47 42 39 37 36 38 39 40 41 44 47 47 47 48 48 46 48 54 64 70 63 55 56 57 59 64 64 56 62 83 97 97 94 93 93 96 98 94 94 98 100 99 98 99 99 96 92 88 82 75 68 62 59 56 53 52 54 56 57 60 60 57 54 49 43 37 35 35 34
72 72 72 72 69 63 56 48 39 34 33 37 44 45 43 47 50 46 42 39 40 45 48 46 45 47 49 51 52 54 54 53 52 48 47 50 49 44 42 41 39 40 43 42 43 54 64 63 56 54 61 81 96 92 82 84 90 92 92 93 96 99 99 96 89 83 79 78 79 76 70 65 63 60 56 55 54 54 54 55 55 55 55 53 49
62 66 67 68 70 74 73 63 48 40 37 39 44 44 39 40 42 42 41 40 39 41 45 47 49 52 52 50 50 53 55 55 54 54 51 48 46 43 40 39 37 34 34 35 35 37 39 39 36 31 32 51 73 74 64 68 81 87 85 83 84 88 88 80 71 66 66 69 74 74 71 70 70 67 62 59 59 58 55 52 49 49 49 47 44
48 51 49 49 55 64 70 67 59 52 50 50 49 46 44 45 42 38 38 38 37 37 38 40 44 48 53 53 51 53 54 54 53 54 56 55 51 48 44 41 40 38 35 34 33 32 32 32 32 31 27 29 38 44 45 52 64 70 69 67 67 68 68 63 56 50 44 41 42 43 47 55 61 61 61 62 64 65 63 60 55 51 48 47 46
41 37 36 38 42 45 49 58 63 59 55 56 54 47 48 54 49 40 39 39 36 35 34 34 33 33 36 40 42 45 47 48 50 51 52 55 54 50 47 43 41 38 37 36 34 32 31 30 28 27 25 21 23 29 36 39 40 41 40 39 39 40 40 39 38 36 31 26 24 25 27 32 37 40 46 51 54 55 54 51 50 49 48 47 46
43 41 39 39 40 38 40 50 59 59 56 60 61 53 49 54 50 45 47 46 43 42 40 39 37 33 30 30 30 32 33 33 36 38 39 42 42 41 40 38 36 34 31 30 29 27 27 27 27 25 22 20 19 22 28 31 31 31 29 28 28 28 29 28 26 25 24 22 20 20 19 18 19 21 24 28 30 30 30 28 27 27 28 29 30
54 56 54 51 47 45 48 53 51 50 54 60 63 59 56 57 54 50 49 47 45 47 47 48 47 41 35 34 33 32 31 30 30 30 30 31 31 31 31 30 29 28 26 24 22 22 23 23 23 24 27 34 38 36 33 33 31 30 29 28 28 28 27 28 27 25 24 23 21 20 20 18 18 17 16 16 16 16 15 14 14 14 14 15 15
67 67 67 68 65 58 57 58 50 47 53 56 56 55 59 64 62 56 51 46 42 42 44 46 43 35 31 33 34 34 35 35 33 31 31 32 32 32 31 31 31 30 29 27 23 22 23 23 26 36 51 69 79 73 63 55 47 42 42 41 40 40 38 37 36 34 32 30 29 27 26 25 23 22 20 19 18 18 17 15 15 14 13 13 12
67 71 76 79 77 65 54 53 53 51 50 50 50 50 54 63 67 64 58 54 50 48 46 41 34 29 31 34 34 34 35 33 29 28 29 30 32 33 34 34 34 34 34 33 31 30 30 30 36 52 69 85 93 91 86 81 73 68 67 66 63 60 57 54 51 49 45 41 36 33 30 29 27 24 22 20 19 19 18 17 16 15 15 14 13
64 71 72 71 70 65 58 54 53 49 42 42 46 44 40 50 64 66 62 60 61 60 54 43 33 29 31 31 28 26 25 21 20 22 26 29 32 35 35 35 35 35 34 35 35 36 37 38 43 54 65 73 79 83 87 92 91 86 81 75 67 61 57 54 51 47 43 39 34 30 27 25 23 21 20 20 20 19 18 17 17 16 16 15 15
57 64 65 68 74 80 78 64 50 44 38 33 34 33 31 41 56 62 61 56 53 51 47 41 35 32 31 27 21 17 14 12 11 13 16 20 23 27 29 30 31 31 33 37 40 40 40 40 40 43 49 53 56 58 65 73 75 71 63 54 48 43 40 38 36 33 31 29 27 24 23 22 21 21 21 21 21 21 20 19 18 18 18 17 17
41 46 47 53 59 64 64 50 35 31 27 25 30 36 39 44 50 54 53 45 38 39 40 40 38 35 29 21 15 12 11 10 11 10 11 12 13 15 16 16 17 18 21 28 35 38 40 41 41 41 41 41 41 42 44 47 48 47 43 39 36 34 32 31 30 29 28 27 26 25 24 24 23 23 23 23 23 22 21 21 21 21 21 20 20
42 40 34 33 32 30 29 27 24 26 29 33 39 41 40 40 38 39 40 38 38 40 40 38 37 31 23 18 15 14 13 13 14 15 15 15 15 15 15 13 12 12 13 17 21 25 28 31 35 38 40 40 41 41 41 41 41 41 39 38 36 35 35 35 33 33 32 31 30 29 28 28 27 27 26 26 24 23 23 23 24 24 23 23 22
52 50 41 33 30 26 24 24 25 31 38 40 38 37 39 41 40 39 39 39 42 41 37 34 32 26 23 22 20 18 17 17 17 18 19 20 20 21 22 20 18 18 19 19 19 19 20 21 23 27 31 35 38 40 41 42 42 42 41 41 40 39 38 38 38 38 38 36 34 33 32 31 30 29 29 27 26 25 26 26 26 26 25 24 24
52 54 49 41 33 27 27 27 26 30 34 34 34 39 45 50 51 50 47 43 41 40 38 37 36 35 34 31 27 25 23 21 20 19 20 22 25 28 30 29 26 25 25 24 23 22 21 21 21 21 23 27 30 33 36 39 41 43 43 43 42 42 43 43 43 41 41 40 38 37 36 35 34 33 32 31 30 30 30 29 29 27 26 25 24
58 57 59 58 46 33 31 33 32 31 30 27 28 36 46 51 50 47 45 43 42 43 44 47 48 46 42 36 32 29 26 23 23 22 22 25 30 35 36 34 31 29 28 27 26 26 26 27 27 26 25 25 27 29 33 38 42 44 45 46 47 47 48 47 46 45 44 43 42 40 39 39 38 37 36 35 34 33 31 30 28 27 26 25 23
58 53 57 65 58 41 35 38 39 38 36 33 29 30 38 45 46 45 46 49 51 52 52 53 53 49 42 36 32 30 28 26 24 24 28 33 37 39 38 36 33 30 29 29 28 29 30 30 30 30 30 30 30 31 33 36 39 42 46 48 48 48 48 48 47 46 44 43 42 41 39 38 37 37 36 34 33 31 30 29 26 24 21 19 17
52 49 54 63 59 46 40 44 48 46 42 40 37 35 35 39 45 50 57 65 69 65 57 52 49 43 38 34 32 30 29 29 29 32 37 40 40 40 39 37 34 31 29 29 30 30 29 30 31 33 34 33 33 33 34 36 39 42 45 46 46 46 45 44 43 41 41 40 39 36 35 35 34 33 31 30 28 27 25 21 16 13 11 11 12
53 54 58 60 56 48 44 47 49 48 44 40 38 36 34 35 41 48 57 69 75 67 55 48 43 37 33 31 30 30 30 31 34 37 39 40 39 38 37 35 33 30 28 28 28 28 28 29 32 33 34 34 34 34 35 38 41 42 43 44 44 44 42 40 39 38 37 35 34 34 33 31 27 25 23 20 17 14 12 10 10 12 14 16 18
52 53 54 54 53 50 47 45 45 44 41 37 34 33 32 35 42 47 50 54 55 49 43 40 36 33 32 30 29 29 30 31 33 33 33 33 33 32 32 31 29 27 26 25 24 25 26 27 30 31 32 32 33 34 38 39 39 39 40 41 41 41 40 38 36 35 33 32 31 29 25 20 16 13 10 8 7 9 11 13 14 15 15 14 13
44 43 43 45 46 45 43 41 40 38 35 32 32 34 36 38 42 43 40 38 35 32 31 31 29 29 29 29 28 28 27 27 27 27 27 26 25 25 24 23 21 21 20 19 18 18 18 19 21 22 23 24 26 29 29 29 31 34 37 38 39 38 37 35 33 31 27 22 18 16 14 10 6 5 6 9 12 14 14 12 10 9 8 7 6
34 34 35 36 37 36 36 36 35 34 33 32 32 33 35 36 35 34 32 30 28 26 25 26 26 25 24 25 25 24 23 23 23 23 23 22 21 20 18 17 17 16 14 14 14 12 12 11 11 11 11 12 13 13 12 14 20 24 27 28 29 29 28 27 24 19 14 10 9 8 5 4 6 11 16 17 15 11 8 7 6 7 7 6 5
23 24 25 25 26 27 27 28 29 30 30 30 30 30 30 29 29 29 29 27 26 25 24 24 23 22 22 22 22 21 21 21 21 21 21 20 19 18 16 14 13 12 11 11 10 8 8 7 6 6 7 6 6 6 6 8 9 10 13 15 15 16 16 14 11 9 8 8 6 4 7 15 22 22 17 11 7 6 7 8 8 7 6 5 5
18 18 18 18 18 18 19 20 21 22 23 24 25 26 26 26 26 26 26 26 25 24 23 23 22 22 22 21 21 21 20 20 20 19 18 18 17 16 14 12 11 10 9 8 7 7 7 6 5 6 5 5 5 5 5 5 6 6 7 7 7 8 8 7 7 7 7 6 8 17 28 31 24 14 8 6 7 8 8 8 8 7 6 6 5
Wind_Speed
15 15 16 19 21 22 22 20 17 15 16 17 19 21 22 23 22 21 20 19 18 17 17 17 17 17 18 19 19 20 20 20 19 19 18 18 17 17 16 17 16 16 17 17 17 17 18 19 18 18 18 18 17 16 17 17 17 17 18 19 19 19 20 19 20 20 19 19 19 18 17 18 20 21 22 19 17 17 20 23 26 28 30 30 32
17 16 17 18 20 22 23 21 19 18 18 19 20 22 23 23 22 19 18 17 18 17 17 17 16 16 17 18 19 19 20 21 20 19 19 18 18 18 17 17 17 17 17 17 18 17 18 18 18 18 18 18 18 17 17 17 17 18 19 19 20 20 21 20 20 20 20 20 20 19 18 18 19 20 21 20 19 18 19 20 22 25 28 30 31
17 17 19 19 20 21 22 22 21 21 22 22 21 22 24 23 21 18 17 17 18 18 17 16 16 16 16 17 17 18 19 20 21 20 20 19 19 18 18 18 18 18 18 18 18 18 18 18 18 18 18 18 18 18 18 18 18 19 19 20 20 21 21 22 22 22 21 20 20 20 19 19 19 19 20 20 20 20 21 21 20 20 22 26 29
18 19 20 21 20 20 20 21 23 23 24 23 22 23 24 23 21 18 16 17 18 18 17 16 15 15 16 16 17 17 18 19 20 20 20 19 19 19 19 19 19 19 19 19 18 18 18 18 18 18 18 18 18 18 18 18 19 19 20 21 21 21 22 22 22 22 21 20 19 19 19 19 17 17 18 20 21 22 21 21 20 20 20 23 26
17 18 19 21 20 18 20 21 22 24 25 25 24 23 24 25 22 19 17 17 18 18 17 16 15 15 16 17 17 17 18 18 18 19 20 20 19 19 19 19 20 20 19 19 18 18 18 18 18 18 18 18 18 18 18 18 19 20 20 21 22 22 22 22 22 21 20 20 19 18 18 18 17 17 18 20 21 22 22 21 20 19 18 21 23
16 15 17 19 19 19 20 21 21 23 25 25 25 24 25 27 25 21 19 18 19 18 17 16 15 15 16 17 17 18 17 18 18 18 19 19 19 19 19 19 19 19 19 18 18 17 17 17 17 17 17 17 18 18 19 19 19 20 21 21 22 22 22 22 21 21 20 20 19 19 18 19 19 18 19 20 21 21 21 21 21 20 18 18 20
19 17 18 19 19 18 18 19 20 22 24 25 26 26 27 30 30 24 20 19 19 18 18 17 15 15 16 17 17 17 17 17 18 18 18 18 19 19 19 19 19 19 19 18 18 17 17 17 16 16 16 17 17 18 19 19 19 20 20 21 21 21 21 21 21 20 20 19 19 19 19 20 20 19 20 20 20 20 20 19 20 21 21 18 18
23 20 19 20 19 18 18 18 19 21 23 24 24 25 27 30 31 25 20 20 20 20 20 18 16 16 16 17 17 17 17 18 18 18 18 19 19 20 19 19 19 19 18 18 17 17 17 17 16 16 16 16 17 17 18 18 18 18 19 19 20 21 21 21 20 19 19 19 19 19 20 20 20 20 20 21 21 21 20 19 18 18 17 16 17
24 19 18 19 18 18 18 18 18 19 22 23 23 22 22 24 26 24 20 19 20 20 21 20 19 17 17 17 18 18 18 18 19 19 19 20 20 20 19 19 19 18 18 18 17 17 16 16 16 16 16 16 16 16 17 17 17 17 17 18 19 19 20 20 20 19 18 18 18 19 19 20 21 21 21 22 22 22 21 21 21 19 17 18 19
21 17 16 17 17 17 18 19 19 20 21 23 23 22 22 23 23 22 20 19 20 21 22 23 21 19 18 17 18 19 20 19 20 20 20 21 21 20 19 19 18 18 17 17 17 16 16 16 16 16 16 16 15 15 15 15 15 15 15 16 17 17 18 19 19 18 17 17 18 19 19 20 20 21 21 21 21 22 23 23 23 23 23 23 23
20 19 17 15 16 18 20 21 21 21 21 21 21 19 22 26 26 23 21 21 21 22 24 24 23 22 20 18 18 20 21 21 21 20 20 20 20 20 19 18 18 17 17 16 16 15 14 14 14 14 15 15 14 14 14 14 14 14 14 15 15 16 16 17 18 18 17 16 17 18 19 19 20 20 20 20 20 20 21 22 23 23 24 24 24
23 21 18 15 16 19 21 20 20 20 21 22 21 18 19 26 31 29 25 23 23 23 25 25 26 25 22 20 19 20 21 21 21 21 20 20 20 19 19 18 18 17 17 16 15 15 14 13 13 12 13 13 13 13 13 13 13 13 14 14 14 15 15 15 16 16 16 16 15 16 18 19 19 20 19 19 19 19 19 20 21 22 22 23 23
22 19 18 17 19 21 22 22 21 21 21 23 24 23 24 29 34 31 24 23 24 25 25 27 28 27 25 23 20 21 22 22 21 21 20 20 19 19 18 17 17 17 17 17 16 15 14 13 12 12 12 12 12 13 13 13 13 13 13 13 14 14 14 15 15 15 15 15 14 14 15 17 18 19 19 18 18 18 18 18 19 20 20 20 21
21 21 22 22 21 23 24 24 23 23 23 24 26 27 28 31 32 31 26 23 26 26 26 27 28 29 28 25 23 22 22 22 21 21 20 20 19 19 18 17 16 17 17 16 16 15 14 14 13 12 12 12 12 12 12 12 13 13 13 13 13 14 14 14 14 14 14 14 13 13 13 15 17 17 17 17 17 16 17 17 17 18 18 18 19
20 22 25 26 25 25 26 26 26 26 26 27 27 26 27 29 30 31 29 25 25 26 26 28 30 30 29 27 25 24 23 22 22 22 20 19 19 18 18 17 16 16 17 16 16 16 15 14 14 14 13 13 13 13 13 12 12 13 13 13 13 13 14 14 14 14 14 13 13 12 12 13 14 16 16 15 15 15 15 15 16 16 16 17 17
20 23 25 26 25 26 27 28 28 27 27 27 27 26 26 29 32 32 29 26 26 26 28 30 31 32 31 30 27 26 24 23 23 22 20 19 19 18 17 17 17 17 17 17 17 16 16 16 16 16 15 15 15 14 14 14 14 13 13 13 13 13 13 13 13 13 13 13 13 12 12 12 13 14 14 14 13 13 13 14 14 14 14 14 15
25 26 26 27 26 25 26 27 27 27 27 28 29 29 27 29 33 32 28 28 28 28 31 31 31 32 32 31 28 26 25 24 23 23 21 19 19 18 17 17 17 18 18 17 17 17 17 17 18 17 17 17 16 16 16 16 16 15 15 14 14 13 13 13 13 13 13 13 12 12 12 12 12 13 14 14 13 12 12 12 13 13 12 13 13
27 27 27 28 26 24 24 26 27 28 29 29 31 32 30 29 31 30 29 29 28 28 31 31 32 32 31 31 29 25 23 23 22 23 22 20 18 18 18 17 17 18 18 18 18 18 18 18 18 18 18 18 18 17 17 17 17 16 16 16 15 15 14 14 14 13 13 13 12 12 12 12 12 13 13 13 13 13 12 12 12 12 12 12 12
25 25 25 25 23 22 22 23 24 25 27 28 29 31 32 32 31 31 33 33 32 30 30 31 30 29 29 30 28 24 22 22 22 23 23 22 19 18 19 18 17 17 18 18 18 18 18 18 18 18 18 19 19 18 18 17 17 16 16 16 16 16 16 15 15 15 14 14 13 13 13 13 13 13 13 13 14 14 13 12 12 13 13 13 13
23 22 22 21 21 21 21 22 22 24 25 26 27 28 30 31 31 32 34 35 34 32 30 30 29 27 27 27 24 20 19 21 23 24 24 22 19 18 18 18 17 17 18 18 19 20 20 19 18 18 19 19 19 19 19 18 17 16 16 16 16 16 17 17 16 16 16 16 15 15 14 14 14 14 14 14 15 15 15 15 14 14 14 15 15
20 20 20 20 21 21 22 22 23 24 25 26 27 27 28 30 31 33 34 34 34 33 32 32 31 27 24 24 23 20 17 18 22 25 24 22 20 19 19 19 19 18 18 19 20 20 21 20 19 19 18 19 19 19 19 18 18 17 16 15 16 16 17 17 17 17 17 17 17 16 16 16 16 16 16 16 16 17 17 17 16 16 16 16 16
19 18 20 21 23 24 24 24 24 25 27 27 28 27 27 28 30 32 33 34 34 34 34 34 32 29 25 24 27 29 26 22 22 25 25 23 21 21 21 21 21 21 21 21 21 22 22 22 21 21 20 20 19 19 18 18 18 17 17 16 16 16 17 17 18 18 19 19 18 18 18 17 17 17 18 18 18 18 18 18 18 18 18 17 17
21 21 24 25 27 27 26 26 26 27 28 28 29 28 28 28 29 30 32 33 34 34 34 34 33 31 29 27 29 32 32 28 27 27 26 25 24 24 23 23 23 24 25 25 25 24 24 24 24 24 23 22 21 19 19 19 19 19 19 18 18 17 17 17 18 19 20 20 20 19 19 19 19 19 19 20 20 20 20 20 20 20 20 20 20
25 26 28 28 28 28 28 28 28 28 29 30 31 31 31 30 30 30 31 32 34 34 34 35 33 30 28 29 30 31 32 33 32 30 29 28 28 27 26 26 25 26 28 28 27 26 26 26 26 25 24 24 23 21 21 22 22 22 21 20 20 19 19 19 19 20 20 20 21 20 19 20 20 20 20 20 21 21 21 22 21 21 21 21 22
30 31 31 29 29 29 30 30 31 31 31 32 33 33 34 34 33 33 33 33 34 34 35 36 36 34 32 32 34 35 35 34 32 31 32 33 31 29 28 29 28 28 29 30 30 28 26 26 26 26 26 26 25 25 25 24 24 24 24 23 22 22 22 22 22 22 21 21 22 22 21 21 21 21 21 21 22 22 22 23 23 22 22 22 22
33 32 31 31 31 31 31 32 32 33 34 34 35 35 36 37 37 38 37 36 36 36 36 36 37 38 37 37 37 37 37 35 32 32 34 33 30 28 28 29 30 29 28 29 30 30 28 25 25 26 27 26 26 26 27 26 26 26 26 25 24 24 25 25 25 24 23 22 23 24 24 23 24 24 24 24 24 24 24 25 24 24 24 24 24
32 32 32 33 34 34 35 35 35 35 35 36 37 38 38 39 40 41 40 40 39 38 38 38 38 39 39 40 40 39 38 36 34 32 33 32 30 29 28 29 29 29 29 28 28 28 28 26 25 26 27 27 26 26 26 26 26 27 26 26 26 26 26 27 27 26 25 25 26 27 27 27 26 27 27 27 28 28 28 28 28 28 28 29 29
31 32 33 34 36 37 38 39 39 39 38 37 38 38 39 40 40 41 41 41 41 41 41 40 40 41 41 42 42 42 41 40 38 36 35 35 34 33 32 32 32 32 31 30 28 27 27 27 26 27 29 30 29 27 27 26 26 25 23 24 24 24 24 25 26 27 27 28 29 30 31 31 31 31 31 30 30 30 31 31 31 32 32 32 32
34 35 35 35 36 38 40 42 43 43 43 41 40 39 38 38 39 40 41 43 43 43 44 44 43 43 44 44 44 44 44 44 43 42 41 40 39 39 38 37 37 37 36 35 34 34 34 34 33 32 32 32 31 29 30 30 30 29 28 27 26 24 23 25 26 27 28 29 30 32 33 33 33 35 35 35 35 34 34 35 34 34 34 34 35
40 38 38 38 37 37 39 42 44 45 45 44 42 41 39 38 38 39 39 41 44 45 46 46 46 46 46 46 46 47 48 48 47 47 46 45 44 43 42 41 41 41 41 40 40 40 41 40 39 37 36 36 36 36 36 35 35 34 33 33 32 30 29 29 29 29 30 32 34 35 36 35 35 36 37 37 37 36 36 36 37 38 38 39 40
46 44 43 43 43 41 42 43 45 45 45 44 43 41 40 39 40 40 39 39 41 43 45 47 48 49 49 49 49 50 50 51 51 51 51 50 49 48 48 47 46 46 45 45 45 45 45 44 42 41 40 40 42 43 41 39 39 38 38 38 38 38 37 36 36 35 35 36 38 40 40 39 39 39 39 39 39 39 38 38 38 39 40 41 42
51 52 52 51 51 50 48 46 45 44 43 43 42 42 41 41 42 42 42 40 40 41 43 45 46 48 49 50 51 52 52 53 54 54 54 54 54 53 53 52 52 51 51 50 49 49 48 48 46 45 43 43 44 45 43 42 42 43 43 42 43 44 44 44 43 42 42 41 41 42 43 44 44 43 42 42 43 44 44 44 44 44 44 45 45
54 54 54 54 54 54 52 49 46 44 44 43 43 44 45 44 44 44 43 43 43 43 43 42 43 44 46 48 49 50 51 52 53 54 55 56 56 56 56 56 55 55 55 54 54 53 51 51 50 49 47 45 44 44 44 44 44 45 46 46 46 46 47 46 46 45 44 43 43 44 45 46 46 46 46 46 47 48 49 49 49 49 50 50 51
55 54 54 54 54 53 53 52 50 49 48 45 45 46 47 46 46 46 46 46 46 46 46 45 45 45 46 47 47 48 49 49 50 51 52 53 54 54 54 55 55 56 56 56 56 56 54 54 53 52 49 45 43 43 43 44 45 46 46 47 47 47 47 47 47 46 45 45 45 45 45 45 45 46 47 47 48 48 49 50 50 51 52 53 53
51 49 49 50 52 52 52 53 54 53 52 49 47 48 47 46 47 48 48 48 47 47 47 47 47 47 47 47 47 47 47 48 49 49 50 50 51 51 51 52 52 53 54 55 56 56 55 55 53 51 48 46 45 44 44 44 45 45 44 44 45 45 45 45 46 46 45 45 45 45 45 45 46 46 47 48 48 49 49 50 51 51 52 53 53
48 47 47 47 50 53 54 55 56 55 55 53 51 50 49 48 49 49 49 49 49 48 48 48 49 49 48 48 48 48 49 50 50 50 50 50 50 50 50 50 50 50 51 52 53 54 53 53 51 50 49 48 48 47 47 46 45 44 43 43 43 43 43 44 44 45 45 46 46 47 47 47 47 48 48 49 49 50 50 50 50 51 51 52 53
48 48 48 48 50 53 54 54 55 56 56 54 51 51 52 51 51 51 51 51 50 50 51 52 53 51 50 49 50 50 51 51 50 50 50 50 50 50 50 50 50 50 50 50 51 51 51 51 50 51 51 51 50 49 48 47 46 45 45 45 45 46 46 47 47 48 48 48 48 49 49 49 49 48 48 47 48 48 49 49 50 50 50 51 52
49 49 48 47 46 46 48 51 53 55 56 55 52 53 53 53 53 54 54 53 53 54 54 55 53 51 50 50 50 49 49 49 49 48 48 49 49 50 51 51 51 51 51 51 50 50 50 51 51 51 51 51 51 50 49 48 48 48 48 48 48 48 48 49 49 49 49 49 49 49 49 48 48 47 47 47 47 48 48 49 49 50 50 51 51
52 53 52 51 50 50 51 54 56 57 57 56 54 54 54 54 55 55 55 56 55 55 54 54 53 51 50 50 49 49 49 48 48 48 48 48 49 50 50 51 51 51 51 51 51 51 51 51 51 51 51 51 51 51 49 49 49 49 49 49 48 48 48 48 48 48 48 48 47 47 47 47 47 47 47 48 48 48 48 48 49 49 50 50 51
50 52 53 53 55 56 58 58 58 58 57 56 56 56 55 55 55 55 55 55 55 54 52 51 51 50 49 49 49 49 48 48 48 47 47 48 48 49 49 50 49 49 49 49 50 50 51 52 52 52 52 52 52 50 49 48 48 47 47 47 47 46 46 46 46 46 47 47 46 46 46 46 47 47 48 48 48 48 48 48 49 49 49 50 50
47 49 50 51 51 52 54 55 56 56 57 57 56 56 55 54 54 53 53 52 52 51 50 49 48 48 48 48 48 48 48 47 47 47 46 47 47 47 47 47 47 46 46 47 47 48 49 50 51 52 52 52 51 50 49 48 47 46 46 46 46 45 45 45 45 45 46 46 46 45 46 46 47 47 47 47 47 47 47 48 48 49 49 49 50
47 48 49 50 50 50 51 52 54 55 57 57 55 54 54 53 53 52 52 51 51 50 49 48 48 48 48 49 49 48 48 47 46 46 46 45 45 45 45 45 44 43 44 44 44 45 45 46 47 48 49 49 49 49 48 48 47 46 45 45 45 45 45 45 45 45 46 46 46 45 46 46 47 47 47 47 47 47 47 47 48 48 49 50 50
47 47 47 47 48 49 49 50 52 54 55 56 55 54 53 54 53 53 52 51 50 50 50 49 49 49 49 49 49 48 47 47 46 46 45 45 44 44 45 45 44 43 43 43 43 43 43 43 43 44 44 45 45 46 46 46 45 45 45 44 44 44 45 45 46 46 46 46 46 46 46 46 46 46 47 47 46 47 47 47 48 48 49 49 50
49 49 48 48 49 50 49 49 51 52 53 54 54 54 54 54 54 53 52 51 50 51 51 51 51 50 50 50 49 49 48 47 46 45 45 44 45 45 45 44 44 44 44 44 43 43 43 43 42 41 41 41 42 42 43 43 44 44 44 43 44 44 44 45 46 46 46 46 46 46 46 46 46 46 46 46 46 46 46 46 46 46 47 48 49
51 50 50 50 51 51 51 50 51 50 51 52 53 53 53 53 52 52 51 51 51 52 52 52 52 52 51 50 49 48 47 46 45 45 44 44 45 45 45 45 45 44 44 44 44 43 43 43 42 42 41 41 40 39 40 40 41 42 42 42 42 43 43 43 44 44 44 44 44 44 44 44 43 43 43 43 42 42 42 43 44 44 44 45 45
51 50 50 51 52 52 52 52 52 51 51 51 51 52 52 52 50 50 50 51 52 54 53 53 52 52 51 49 48 47 46 45 44 44 43 44 45 45 45 44 44 44 44 43 43 43 43 43 42 42 41 40 39 38 38 38 39 39 40 40 40 40 40 40 41 41 41 41 41 41 40 40 40 40 39 39 40 40 40 40 39 38 38 39 40
51 51 51 51 52 52 53 53 52 52 52 52 52 51 51 49 49 49 50 51 52 53 53 52 51 51 49 48 46 45 44 43 43 43 43 43 44 44 44 44 44 44 43 43 42 42 41 40 40 40 39 38 38 38 38 38 38 38 37 37 37 38 38 38 38 38 37 37 38 38 38 38 38 38 38 38 37 36 34 32 31 32 33 35 37
52 52 52 52 52 52 53 54 53 53 52 52 51 49 47 48 49 50 51 51 52 51 50 50 49 48 47 46 46 45 44 43 43 43 43 43 43 43 43 43 43 42 42 42 41 40 39 38 38 38 37 37 37 38 37 37 37 37 37 37 37 37 37 36 36 36 36 36 36 37 37 37 37 36 35 33 30 27 25 26 28 31 33 35 37
52 52 52 52 53 53 53 53 53 53 53 52 50 48 47 49 50 51 51 51 51 50 49 48 48 47 46 45 45 44 43 43 43 42 42 43 42 41 41 41 42 41 41 41 40 39 38 38 38 38 38 38 38 37 37 36 37 37 37 37 37 37 37 36 36 36 36 36 36 36 35 34 32 30 26 23 21 21 23 26 29 32 34 37 40
51 51 51 52 52 53 53 52 52 53 52 51 51 50 50 50 50 50 50 51 51 50 49 48 48 47 46 45 45 44 43 42 42 41 41 41 41 40 40 41 41 41 41 41 40 40 39 39 39 39 38 38 38 38 38 38 38 39 38 38 39 39 38 37 36 36 36 35 33 32 30 27 23 20 18 17 19 22 25 27 30 34 37 41 44
50 51 51 51 52 52 51 50 51 52 52 52 51 51 51 51 50 50 50 50 50 49 49 48 48 47 46 45 45 43 42 41 41 41 41 40 40 39 39 39 39 39 40 40 39 39 39 38 38 38 38 38 38 39 39 39 40 39 39 40 40 39 37 36 36 34 32 30 28 25 22 19 16 15 15 18 20 23 26 29 32 36 40 44 47
Wind_Direction
261 255 245 238 244 262 276 279 280 280 275 272 271 273 276 279 282 282 284 286 287 289 291 292 294 297 299 301 301 299 297 296 295 293 292 292 290 288 288 287 285 283 281 278 276 275 276 276 276 278 279 280 280 279 278 279 279 277 276 275 275 275 273 271 271 270 268 270 273 273 271 269 269 269 268 273 272 259 250 246 244 241 237 237 239
258 254 252 252 258 266 268 269 274 276 274 272 271 273 275 276 277 278 281 283 285 287 289 290 293 297 299 301 302 301 300 300 299 297 295 293 292 290 289 288 287 286 284 283 281 280 280 281 280 280 280 279 279 277 275 276 275 273 272 272 273 273 271 269 269 269 268 269 271 271 271 271 270 269 269 269 270 266 262 259 256 251 245 241 240
258 254 256 259 259 261 265 268 270 272 274 272 270 271 272 272 273 275 277 279 282 283 284 286 288 293 297 300 302 302 301 300 300 300 298 296 294 293 291 291 290 288 287 286 285 284 283 283 282 282 281 281 280 277 276 275 274 272 271 271 271 271 270 270 270 269 268 268 267 268 271 271 268 266 267 270 269 268 267 268 266 262 254 247 244
257 256 257 261 262 262 264 267 269 271 272 269 267 268 269 268 269 271 273 276 277 278 280 285 289 293 296 297 298 299 300 300 299 299 298 297 296 293 292 292 291 290 290 289 289 288 287 286 286 284 283 282 282 280 278 276 274 274 273 272 271 270 270 270 270 270 270 267 265 267 270 269 267 266 267 269 269 269 268 269 270 267 259 251 249
261 261 261 259 257 257 258 262 267 268 269 268 266 265 267 267 266 268 272 275 277 279 284 289 294 299 299 299 299 299 300 300 299 298 296 295 294 293 292 291 290 290 290 290 290 289 289 288 287 287 286 283 281 278 276 274 273 272 271 271 270 270 269 269 270 270 269 268 268 266 266 265 265 266 267 267 268 270 270 270 271 268 261 254 252
268 263 262 259 255 255 255 256 260 263 266 266 265 264 263 264 265 266 270 275 278 282 287 291 297 302 303 303 303 301 301 301 300 298 295 293 292 291 290 289 289 288 287 287 288 288 288 288 287 287 285 282 278 275 272 270 269 268 267 267 268 268 267 267 268 268 267 267 267 265 262 263 266 265 265 265 266 269 271 270 268 267 265 259 253
268 260 259 259 259 262 260 259 258 260 264 265 266 263 260 263 264 263 267 275 281 285 288 292 297 302 304 304 303 302 302 302 301 299 297 295 292 290 288 288 287 286 286 286 287 288 288 287 287 285 283 279 276 272 269 267 265 264 264 264 266 266 266 266 266 267 267 266 266 264 262 263 264 263 263 264 265 265 267 268 269 269 266 263 259
266 263 261 261 262 264 263 260 256 257 262 265 267 265 263 264 262 260 266 274 281 287 289 292 297 300 303 304 301 301 301 302 303 302 300 297 292 289 288 287 286 285 285 286 286 286 286 284 283 281 280 277 274 271 268 266 264 263 262 263 264 265 266 267 267 266 266 265 264 264 263 262 262 261 261 263 262 261 262 265 269 270 265 264 265
269 273 269 262 260 261 261 260 261 262 263 264 267 264 261 263 260 259 265 274 280 286 289 292 295 297 301 303 302 301 301 303 304 302 299 297 293 288 285 284 284 284 283 283 284 284 283 282 281 279 278 275 273 270 268 267 265 263 262 262 262 264 265 267 267 267 264 263 262 261 261 260 261 261 260 261 261 259 260 261 262 263 264 267 269
269 271 267 264 266 269 269 269 269 268 267 268 268 260 249 252 261 266 268 273 279 283 286 289 292 294 298 301 301 301 301 302 301 298 295 293 291 286 283 282 281 281 280 279 280 280 280 279 279 279 278 276 274 271 269 268 267 266 263 263 264 265 266 268 268 268 265 261 259 258 258 258 259 260 260 260 260 259 259 260 261 261 262 265 266
261 257 260 269 275 275 272 270 268 268 270 270 268 263 249 246 259 273 278 279 279 280 283 285 288 291 295 297 299 300 298 298 296 292 288 285 285 283 280 280 280 280 279 278 278 277 277 277 276 277 278 278 278 276 274 272 270 269 266 265 266 267 268 270 271 271 269 264 259 258 258 258 259 260 261 260 260 260 259 260 261 262 263 263 264
263 260 265 273 273 271 270 269 268 267 269 266 263 266 262 259 263 270 278 278 275 277 279 282 286 288 290 292 295 297 294 292 289 284 281 278 278 278 277 278 279 280 281 280 281 280 280 280 279 279 280 281 282 281 280 277 275 272 270 267 266 267 269 270 272 273 273 269 264 260 258 258 259 259 260 259 259 259 259 259 259 261 262 263 262
273 277 281 281 274 271 270 269 267 262 261 261 262 267 275 277 269 262 269 271 268 271 273 278 283 284 287 288 290 294 289 284 281 277 274 272 272 273 274 276 278 279 281 281 282 282 282 282 282 282 282 282 283 283 282 281 279 277 274 272 269 268 268 268 269 270 272 272 268 262 259 258 259 260 260 260 258 257 257 257 257 258 260 261 260
278 286 282 277 272 269 268 268 269 267 264 265 269 271 276 280 267 253 256 257 254 262 267 272 278 280 283 286 288 290 284 276 273 271 269 269 270 271 270 272 275 277 279 279 280 280 280 280 279 279 279 279 280 281 281 281 280 279 276 274 272 270 269 268 267 267 268 269 268 264 259 257 259 261 262 262 260 258 256 255 255 255 256 258 259
282 281 275 273 273 273 273 274 275 275 274 272 273 270 269 276 268 253 252 250 250 262 271 275 280 282 284 285 286 287 280 271 267 267 267 268 269 270 270 271 273 276 277 278 279 279 278 278 276 275 273 273 274 274 276 277 276 276 275 273 272 270 269 269 268 268 267 267 266 265 259 255 255 259 261 261 260 257 255 254 254 253 254 254 255
271 268 269 273 275 276 278 279 278 277 277 275 274 271 268 272 271 265 263 264 267 279 285 285 284 283 283 282 281 281 276 266 262 263 266 268 268 267 269 271 273 275 277 278 280 280 280 278 276 274 271 270 270 269 271 272 272 272 271 271 271 270 270 270 270 270 270 270 269 266 263 256 252 254 256 256 255 254 250 250 252 252 252 252 253
263 264 268 270 271 273 274 274 275 275 276 276 275 274 271 270 273 277 279 277 278 284 286 284 282 281 282 281 277 274 269 262 259 261 263 267 270 269 269 273 275 275 277 279 281 282 281 279 277 275 272 270 268 268 268 268 270 270 271 271 271 271 271 270 270 269 269 270 270 269 267 262 257 254 256 256 256 254 249 245 247 250 250 249 250
265 268 268 268 270 271 270 271 273 275 276 277 276 276 276 276 277 282 285 283 284 287 284 281 281 280 280 280 275 267 261 258 256 257 260 263 270 274 273 274 277 278 278 278 279 279 278 277 276 275 274 272 269 268 267 266 267 269 270 272 272 273 273 272 272 271 270 269 269 269 267 265 262 257 256 257 257 256 254 248 245 247 250 250 249
265 266 265 266 267 267 269 270 271 274 276 277 279 280 281 282 281 280 280 281 284 286 283 280 279 278 278 277 270 260 255 255 254 254 257 260 266 273 276 276 277 277 278 277 276 275 274 272 273 273 273 272 271 269 268 266 266 267 270 272 274 275 275 274 274 272 271 270 268 268 267 265 264 261 259 258 257 256 256 253 249 247 250 254 255
260 260 262 264 265 266 268 269 271 273 276 278 280 281 280 281 281 280 279 280 283 284 281 279 279 280 279 271 260 256 258 258 256 253 254 259 263 268 273 275 275 275 275 277 276 275 274 271 271 271 271 271 271 270 270 268 267 267 269 272 275 276 277 277 276 274 271 270 268 266 265 263 261 259 258 256 256 256 256 256 254 252 251 252 256
254 257 262 266 270 272 272 272 273 274 276 277 278 278 277 276 276 277 278 278 280 280 279 279 279 281 279 266 252 257 270 270 265 260 255 256 261 267 271 272 274 276 276 277 277 277 275 273 270 269 269 269 269 270 270 270 270 270 270 271 273 276 277 277 277 277 274 271 268 266 265 264 263 260 257 255 254 254 254 256 256 256 256 255 256
252 258 267 275 278 278 276 274 273 272 273 274 274 275 274 273 273 274 276 277 277 277 277 277 277 276 276 267 256 259 267 274 273 267 257 253 258 264 268 269 271 273 273 273 273 272 272 272 270 267 265 264 265 267 269 270 271 271 272 272 273 275 277 278 278 277 276 274 271 269 266 264 264 264 263 261 259 257 257 257 258 259 260 260 261
253 267 276 280 279 277 276 276 275 274 273 273 273 273 272 272 271 272 273 274 274 275 275 275 276 275 273 269 263 262 266 271 274 267 255 251 257 261 261 265 268 269 270 270 270 270 269 269 268 267 265 263 263 264 267 268 269 269 270 270 272 273 275 278 279 278 276 275 274 272 271 269 267 266 267 268 267 266 265 264 264 264 264 265 266
256 272 278 279 276 274 274 275 274 272 272 272 273 273 273 273 272 272 272 271 271 272 272 272 273 273 270 267 266 266 267 269 271 268 259 256 261 261 258 261 265 266 268 270 270 268 266 266 266 266 266 264 263 263 263 266 268 269 270 270 270 271 272 274 275 276 276 276 275 273 273 273 272 271 270 270 270 270 270 269 268 267 267 267 268
262 272 274 274 274 273 273 274 273 271 270 270 271 272 273 274 274 274 272 271 270 269 269 270 269 269 269 269 268 267 267 266 266 266 264 263 265 264 259 259 262 266 270 271 269 263 259 262 265 265 265 263 264 264 263 265 269 272 273 271 270 270 269 268 268 269 271 274 276 276 274 274 275 274 273 272 271 270 270 270 269 268 267 267 267
267 271 271 271 271 270 270 270 271 272 272 271 271 272 273 274 275 275 274 273 271 268 267 268 268 268 269 269 269 268 269 270 268 265 263 263 266 267 265 262 263 266 268 271 270 261 254 258 262 262 264 264 265 265 265 266 268 270 270 269 269 269 268 267 267 267 268 270 272 274 274 274 274 274 274 274 273 271 270 269 269 268 268 268 268
267 267 268 270 270 270 269 268 268 269 269 270 271 271 272 273 273 274 274 273 272 270 269 268 268 269 269 270 271 271 271 273 273 268 264 263 265 266 267 266 265 266 266 271 274 263 253 258 261 258 258 260 261 263 266 265 263 262 265 268 267 267 269 271 272 273 273 272 271 271 272 272 272 272 272 273 272 272 271 269 268 268 269 269 270
266 267 268 270 270 270 270 270 270 270 269 268 267 268 270 271 272 271 270 270 270 269 269 268 268 269 270 271 272 274 275 275 274 272 268 266 265 265 265 265 265 266 265 268 272 265 258 263 267 263 261 262 261 262 264 266 264 262 264 268 267 265 267 271 274 274 273 272 272 273 273 274 274 275 275 274 274 273 273 271 270 268 268 268 269
270 270 270 270 271 272 273 273 273 273 272 270 268 267 267 268 269 270 269 267 266 265 265 266 267 267 268 269 270 272 274 275 275 274 273 270 268 267 267 266 266 268 268 267 268 267 266 269 272 272 271 267 263 265 268 269 268 268 267 268 268 265 265 270 273 274 273 273 273 274 274 275 275 275 276 276 277 276 276 275 273 272 270 270 271
269 266 265 265 268 271 272 273 274 274 273 272 270 269 270 269 270 270 269 267 265 264 264 264 265 266 267 268 269 270 272 273 273 274 274 274 273 272 271 270 269 269 269 268 267 268 269 270 272 274 274 270 266 270 274 272 269 270 270 271 271 269 267 269 271 272 273 274 275 275 275 274 273 273 274 275 275 275 274 274 273 272 272 272 273
264 263 263 264 266 267 267 268 270 271 271 271 271 272 273 273 271 270 269 267 266 265 265 264 264 264 264 266 267 268 270 272 273 274 275 275 275 275 275 275 274 273 271 270 269 269 271 273 273 273 273 271 269 271 273 270 268 270 270 271 272 272 272 272 272 273 273 274 274 275 275 274 272 272 273 274 274 274 273 273 273 272 272 272 272
265 265 264 265 266 266 266 265 265 266 268 270 272 273 273 271 270 270 269 269 270 269 268 267 266 265 265 266 266 266 267 269 270 272 273 274 275 275 276 276 276 276 276 274 273 272 273 273 273 272 272 271 270 270 269 268 268 269 269 270 271 272 273 273 273 274 274 274 273 272 273 272 272 272 272 272 273 273 274 275 275 275 274 273 273
267 266 266 266 265 265 266 264 262 263 266 268 271 272 271 270 270 270 270 269 270 270 269 269 269 269 269 269 269 268 268 268 268 269 270 271 272 273 274 274 275 275 276 275 275 274 274 273 272 272 272 271 269 268 268 268 268 269 269 269 269 270 272 273 274 274 274 274 273 272 272 272 273 273 273 272 272 273 274 275 275 275 275 275 275
266 267 267 266 265 265 265 265 264 263 264 266 267 269 270 270 270 270 269 268 268 268 268 268 269 271 271 271 270 270 270 269 269 269 269 269 270 270 272 272 273 274 275 275 275 276 276 276 276 275 275 274 271 269 269 268 268 268 268 268 269 270 270 271 273 273 273 273 273 273 273 274 274 274 273 273 273 274 274 275 275 276 276 276 276
265 266 266 265 265 265 265 266 266 266 265 265 265 265 266 267 268 268 269 269 269 267 266 265 267 269 270 270 269 269 269 269 269 269 269 269 268 269 269 270 271 272 273 274 275 275 276 277 277 278 277 277 275 273 272 270 270 269 269 270 271 271 271 271 272 273 273 274 275 276 276 276 276 276 275 275 275 276 276 276 276 276 276 276 276
262 262 262 262 263 264 264 265 265 265 265 264 264 264 264 265 265 266 267 268 268 266 265 265 268 269 268 267 267 268 268 269 269 269 269 268 268 268 267 267 268 268 269 271 273 274 274 275 276 276 276 276 275 275 274 274 273 272 272 272 273 273 274 274 275 276 277 278 279 279 279 278 278 277 277 277 277 277 277 277 277 276 276 276 275
259 259 259 261 263 265 265 264 264 264 265 265 264 265 266 265 265 265 266 266 266 265 266 268 270 269 267 266 267 267 267 268 268 268 268 268 268 268 267 267 267 267 267 268 269 270 271 272 272 272 273 274 274 274 275 275 274 273 273 274 275 276 276 277 278 279 279 279 279 280 279 278 278 278 278 278 277 276 276 276 276 276 276 276 275
257 255 256 258 260 262 261 261 263 264 266 267 268 268 268 268 266 266 266 265 266 266 267 268 268 268 267 266 266 266 266 267 267 267 267 267 267 267 267 267 267 267 268 268 269 269 269 269 269 270 270 272 273 273 273 273 273 273 273 275 276 276 277 277 277 277 277 277 277 278 278 278 278 278 278 277 276 275 275 276 276 276 275 275 275
256 254 253 252 253 254 256 260 263 265 267 269 269 269 268 267 266 266 266 267 267 267 268 268 267 267 267 266 266 266 266 266 267 267 267 267 267 267 267 267 267 268 268 268 268 269 269 269 270 270 270 271 272 272 272 272 272 273 274 275 275 275 275 275 275 275 275 275 275 276 276 277 277 276 276 275 275 275 275 275 275 275 275 275 275
259 258 257 255 255 256 258 260 262 264 266 266 266 265 266 266 266 266 266 267 267 267 267 268 267 267 267 266 265 266 266 266 266 266 266 266 267 267 267 268 268 269 269 269 269 269 269 270 270 271 271 272 272 273 273 273 272 272 273 273 273 273 274 274 274 273 273 273 274 274 274 274 274 274 274 274 274 274 275 275 275 276 276 276 276
261 261 261 260 259 259 260 260 261 261 262 262 262 264 265 265 266 266 266 266 267 267 268 268 268 267 266 266 266 266 266 266 265 265 265 265 266 267 268 269 269 270 270 270 269 269 269 269 270 270 271 271 272 273 273 273 273 272 272 272 272 272 272 273 272 272 272 273 273 273 273 273 273 273 273 274 274 275 276 276 277 277 277 277 277
263 264 265 264 262 261 261 260 260 260 260 260 261 263 263 264 264 264 265 266 266 267 268 268 268 267 267 267 267 267 266 266 265 265 265 265 266 267 268 269 270 270 270 270 270 270 270 269 269 269 270 270 271 271 271 272 272 272 271 271 271 271 272 272 272 272 272 273 273 273 273 273 274 274 275 276 277 277 277 277 278 278 278 278 278
265 265 265 264 263 263 262 261 260 260 261 261 261 261 262 262 263 263 264 265 265 266 267 267 266 266 266 267 267 267 267 267 267 267 267 267 267 267 267 268 268 268 268 268 268 269 270 270 270 271 271 271 270 270 270 270 270 270 270 270 270 270 270 271 271 271 272 272 273 273 273 274 275 276 276 277 277 277 277 278 277 277 277 277 277
265 265 265 264 264 264 263 262 261 261 262 262 263 262 262 263 264 265 265 265 265 266 265 265 265 265 266 267 267 266 267 267 268 268 268 268 268 267 267 267 266 266 266 266 267 267 268 269 270 271 271 272 272 272 272 271 270 270 269 269 269 269 269 269 270 270 271 272 273 273 274 274 275 275 275 276 276 276 276 276 275 275 275 276 276
266 266 264 263 264 264 263 262 262 262 261 262 262 262 262 262 263 264 265 266 266 266 265 265 265 265 266 266 266 267 268 268 268 269 268 268 267 267 266 266 266 266 266 266 266 267 267 268 269 269 270 271 272 272 272 272 271 270 270 269 268 268 269 269 270 270 271 272 273 273 274 274 274 274 275 275 275 275 275 275 276 276 276 276 277
267 266 264 263 263 263 263 263 263 262 262 261 261 261 261 261 262 263 264 264 264 264 265 265 266 266 266 267 267 268 268 268 268 268 267 267 266 266 266 266 266 266 266 266 266 266 267 268 268 269 269 269 269 270 271 272 271 271 270 270 269 270 270 270 270 270 271 271 272 273 273 274 274 274 274 275 276 277 277 277 277 278 279 280 282
266 266 265 264 263 263 264 263 263 262 262 262 261 262 262 264 264 265 263 262 261 262 262 264 265 266 267 268 268 268 268 268 267 266 265 264 264 265 266 266 266 266 266 266 266 266 266 267 267 268 268 268 268 269 270 270 270 270 271 271 271 271 271 271 271 271 271 272 273 273 274 275 275 276 276 278 278 278 278 278 279 281 283 284 286
265 264 264 263 263 262 262 263 263 263 263 263 263 264 265 266 265 263 262 261 261 261 262 263 265 266 267 267 268 267 267 266 265 264 264 263 263 264 264 265 265 265 265 265 265 265 266 266 266 266 266 267 267 267 267 268 269 270 271 272 272 273 272 272 272 273 274 275 275 276 276 277 277 278 278 278 277 276 277 279 281 283 285 288 290
264 263 263 262 262 262 262 262 263 263 264 265 265 264 263 262 261 261 262 263 263 264 264 265 266 266 266 266 266 266 265 265 264 263 263 263 263 263 263 263 263 264 264 265 265 265 265 265 265 265 265 266 265 266 267 268 269 270 270 271 271 271 272 273 274 276 277 277 277 277 277 277 277 276 274 272 272 275 279 282 284 288 292 295 297
265 264 263 263 262 262 262 262 263 263 263 263 263 263 262 261 261 262 263 264 265 266 266 266 267 267 267 266 266 265 265 265 264 264 263 263 263 262 261 261 261 261 262 262 263 263 263 264 264 264 264 264 265 266 267 267 267 267 268 268 269 270 272 274 276 277 277 277 276 275 274 272 269 265 264 268 274 279 282 287 292 297 300 301 301
266 265 265 264 263 262 262 262 262 262 262 262 262 262 262 262 262 262 262 263 265 265 266 266 266 267 267 267 266 266 266 266 265 265 264 263 263 262 261 260 259 259 260 260 260 261 261 262 262 263 263 263 264 265 265 265 265 266 266 267 268 270 273 274 275 275 274 273 271 268 264 258 254 257 266 274 279 284 289 295 299 301 303 304 306